Weather in Mollem

India     15°13′32″N   74°09′37″E
temp.,
°C
wind,
m/s
gust,
m/s
humid.,
%
clouds,
%
prec.,
mm/h
press.,
hPa
HPBL,
m
14 april, wed
wed1423:30+25w019146 2.6 101366
02:30+24e009336 0.0 101134
05:30+24ene008997 0.6 101119
08:30+25se118197 0.1 101372
11:30+35nw133529 0.1 10121402
14:30+36wnw343077 0.0 10072366
17:30+30w44571 0.1 10081016
20:30+25wsw12897 1.3 101178
15 april, thu
thu1523:30+24sse01934 2.9 101323
02:30+23ne00945 1.6 101115
05:30+23e11930 2.5 101122
08:30+28e12660 0.0 1013376
11:30+36ssw03320 0.0 10122218
14:30+35wsw443620 0.0 10082465
17:30+30w45564 0.0 10091118
20:30+25wnw237549 0.0 1011206
16 april, fri
fri1623:30+25w127783 0.0 1011255
02:30+24sw018195 0.0 1010125
05:30+24se008336 0.0 101129
08:30+28wnw11560 0.0 1013592
11:30+35nw33250 0.0 10111724
14:30+37w55230 0.0 10072974
17:30+30wnw45470 0.0 1008808
20:30+24w11710 0.0 101127
17 april, sat
sat1723:30+23sw01810 0.0 101111
02:30+21ssw00840 0.0 101011
05:30+21se11790 0.0 101111
08:30+27w12430 0.0 1013439
11:30+35wnw23190 0.0 10131503
14:30+36w54220 0.0 10092324
17:30+31wnw45370 0.0 1010827
20:30+24w11660 0.0 101321
18 april, sun
sun1823:30+22w11780 0.0 101312
02:30+21w00840 0.0 101211
05:30+20s01875 0.0 101211
08:30+27wsw115863 0.0 1015507
11:30+34w333150 0.0 10131385
14:30+36w53305 0.0 10101989
17:30+29w45568 0.0 1010940
20:30+24w2585100 0.0 1013394